SCP
0 0 0 0 0 0 0 0 0 0 0 0 0 0 0 0 0 0 0 0 0 0 0 0 0 0 0 0 0 0 0 0 0 0 0 0 0 0 0 0 0 0 0 0 0 0 0 0 0 0 0 0 0 0
0 0 0 0 0 0 0 0 0 0 0 0 0 0 0 0 0 0 0 0 0 0 0 0 0 0 0 0 0 0 0 0 0 0 0 0 0 0 0 0 0 0 0 0 0 0 0 0 0 0 0 0 0 0
0 0 0 0 0 0 0 0 0 0 0 0 0 0 0 0 0 0 0 0 0 0 0 0 0 0 0 0 0 0 0 0 0 0 0 0 0 0 0 0 0 0 0 0 0 0 0 0 0 0 0 0 0 0
0 0 0 0 0 0 0 0 0 0 0 0 0 0 0 0 0 0 0 0 0 0 0 0 0 0 0 0 0 0 0 0 0 0 0 0 0 0 0 0 0 0 0 0 0 0 0 0 0 0 0 0 0 0
0 0 0 0 0 0 0 0 0 0 0 0 0 0 0 0 0 0 0 0 0 0 0 0 0 0 0 0 0 0 0 0 0 0 0 0 0 0 0 0 0 0 0 0 0 0 0 0 0 0 0 0 0 0
0 0 0 0 0 0 0 0 0 0 0 0 0 0 0 0 0 0 0 0 0 0 0 0 0 0 0 0 0 0 0 0 0 0 0 0 0 0 0 0 0 0 0 0 0 0 0 0 -0 0 0 0 0 0
0 0 0 0 0 0 0 0 0 0 0 0 0 0 0 0 0 0 0 0 0 0 0 0 0 0 0 0 0 0 0 0 0 0 0 0 0 0 0 0 0 0 0 0 0 0 0 0 -0 0 0 0 -0 0
0 0 0 0 0 0 0 0 0 0 0 0 0 0 0 0 0 0 0 0 0 0 0 0 0 0 0 0 0 0 0 0 0 0 0 0 0 0 0 0 0 0 0 0 0 0 0 0 0 0 0 -0 0 0
0 0 0 0 0 0 0 0 0 0 0 0 0 0 0 0 0 0 0 0 0 0 0 0 0 0 0 0 0 0 0 0 0 0 0 0 0 0 0 0 -0 -0 0 0 0 -0 -0 0 0 -0 -0 0 0 0
0 0 0 0 0 0 0 0 0 0 0 0 0 0 0 0 0 0 0 0 0 0 0 0 0 0 0 0 0 0 0 0 0 0 0 0 0 0 0 -0 0 0 0 0 -0 -0 -0 -0 -0 -0 -0 0 0 0
0 0 0 0 0 0 0 0 0 0 0 0 0 0 0 0 0 0 0 0 0 0 0 0 0 0 0 0 0 0 0 0 0 0 0 0 0 0 -0 -0 -0 0 0 0 -0 0 0 -0 0 -0 -0 -0 0 0
0 0 0 0 0 0 0 0 0 0 0 0 0 0 0 0 0 0 0 0 0 0 0 0 0 0 0 0 0 0 0 0 0 0 0 0 0 0 -0 -0 -0 -0 -0 0 0 -0 -0 0 0 -0 -0 0 0 0
0 0 0 0 0 0 0 0 0 0 0 0 0 0 0 0 0 0 0 0 0 0 0 0 0 0 0 0 0 0 0 0 0 0 0 0 0 -0 -0 -0 -0 0 0 0 0 0 -0 0 -0 -0 -0 0 0 0
0 0 0 0 0 0 0 0 0 0 0 0 0 0 0 0 0 0 0 0 0 0 0 0 0 0 0 0 0 0 0 0 0 0 0 0 -0 -0 -0 -0 -0 0 -0 -0 0 -0 0 -0 0 0 0 0 0 0
0 0 0 0 0 0 0 0 0 0 0 0 0 0 0 0 0 0 0 0 0 0 0 0 0 0 0 0 0 0 0 0 0 0 0 -0 -0 -0 -0 -0 0 -0 -0 -0 0 -0 0 0 0 0 0 0 0 0
0 0 0 0 0 0 0 0 0 0 0 0 0 0 0 0 0 0 0 0 0 0 0 0 0 0 0 0 0 0 0 0 0 0 -0 -0 -0 -0 -0 -0 0 -0 0 -0 -0 -0 0 0 0 0 0 0 0 0
0 0 0 0 0 0 0 0 0 0 0 0 0 0 0 0 0 0 0 0 0 0 0 0 0 0 0 0 0 0 0 0 0 -0 -0 -0 -0 -0 0 0 0 -0 0 0 -0 0 0 0 0 0 0 0 0 0
0 0 0 0 0 0 0 0 0 0 0 0 0 0 0 0 0 0 0 0 0 0 0 0 0 0 0 0 0 0 0 0 0 -0 -0 -0 -0 -0 0 0 -0 0 0 0 0 0 0 0 0 0 0 0 0 0
0 0 -0 0 0 0 0 0 0 0 0 0 0 0 0 0 0 0 0 0 0 0 0 0 0 0 0 0 0 0 0 0 0 -0 -0 -0 -0 0 0 0 0 -0 -0 0 -0 0 0 0 0 0 0 0 0 0
0 0 0 0 0 0 0 0 0 0 0 0 0 0 0 0 0 0 0 0 0 0 0 0 0 0 0 0 0 0 0 0 0 0 -0 -0 -0 0 0 0 -0 -0 -0 0 0 0 0 0 0 0 0 0 0 0
0 0 0 0 0 0 0 0 0 0 0 0 0 0 0 0 0 0 0 0 0 0 0 0 0 0 0 0 0 0 0 0 0 -0 -0 -0 0 0 0 0 -0 -0 -0 -0 0 0 0 0 0 0 0 0 0 0
0 0 0 0 0 0 0 0 0 0 0 0 0 0 0 0 0 0 0 0 0 0 0 0 0 0 0 0 0 0 0 0 0 -0 -0 0 0 0 -0 0 -0 -0 -0 -0 0 0 0 0 0 0 0 0 0 0
0 0 0 0 0 0 0 0 0 0 0 0 0 0 0 0 0 0 0 0 0 0 0 0 0 0 0 0 0 0 0 0 0 -0 -0 0 0 0 -0 -0 -0 -0 -0 -0 0 0 0 0 0 0 0 0 0 0
0 0 0 0 0 0 0 0 0 0 0 0 0 0 0 0 0 0 0 0 0 0 0 0 0 0 0 0 0 0 0 0 0 0 0 0 0 -0 0 -0 -0 -0 -0 -0 0 0 0 0 0 0 0 0 0 0
0 0 0 0 -0 0 0 0 0 0 0 0 0 0 0 0 0 0 0 0 0 0 0 0 0 0 0 0 0 0 0 0 0 0 0 0 0 -0 -0 -0 -0 -0 -0 -0 0 0 0 0 0 0 0 0 0 0
0 0 -0 0 0 0 0 0 0 -0 0 0 0 0 0 0 0 0 0 0 0 0 0 0 0 0 0 0 0 0 0 0 0 0 0 0 0 -0 -0 -0 -0 -0 -0 0 0 0 0 0 0 0 0 0 0 -0
0 0 0 -0 -0 -0 -0 -0 -0 -0 -0 0 0 0 0 0 0 0 0 0 0 0 0 0 0 0 0 0 0 0 0 0 0 0 0 0 0 -0 -0 -0 -0 -0 0 0 0 0 0 0 0 0 0 0 0 0
0 0 0 0 0 -0 -0 -0 0 -0 -0 0 0 0 0 0 -0 0 0 0 0 0 0 0 0 0 0 0 -0 0 0 0 0 0 0 0 0 0 0 -0 -0 -0 0 0 0 0 0 0 0 0 0 0 0 0
0 0 0 0 0 0 0 0 0 0 0 0 -0 -0 -0 0 0 0 0 0 0 0 0 0 0 0 0 0 0 0 0 0 0 0 0 0 0 0 0 0 0 0 0 0 0 0 0 0 0 0 0 0 0 0
0 0 0 0 0 0 0 0 0 0 0 0 0 0 0 0 0 0 0 0 0 0 0 0 0 0 0 0 0 0 0 0 0 0 0 0 -0 0 0 0 0 0 0 0 0 0 0 0 0 0 0 0 0 0
0 0 0 0 0 0 0 0 0 0 0 0 0 0 0 0 0 0 0 0 0 0 0 0 0 0 0 0 0 0 0 0 0 0 0 0 0 0 0 0 0 0 0 0 0 0 0 0 0 0 0 0 0 0
0 0 0 0 0 0 0 0 0 0 0 0 0 0 0 0 0 0 0 0 0 0 0 0 0 0 0 0 0 0 0 0 0 0 0 0 0 0 0 0 0 0 0 0 0 0 0 0 0 0 0 0 0 0
0 0 0 0 0 0 0 0 0 0 0 0 0 0 0 0 0 0 0 0 0 0 0 0 0 0 0 0 0 0 0 0 0 0 0 0 0 0 0 0 0 0 0 0 0 0 0 0 0 0 0 0 0 0
Wind_Speed_500mb
60 59 59 51 53 54 47 48 45 40 42 41 36 33 29 25 21 19 18 16 13 10 22 23 22 17 10 8 6 2 6 4 7 7 4 3 2 4 3 7 5 6 3 5 1 5 15 13 24 5 20 68 66 54
58 56 53 45 41 47 49 49 44 39 40 38 33 30 27 24 22 18 15 20 20 17 19 32 35 31 34 39 18 6 3 6 9 7 1 4 4 0 5 6 1 5 11 5 13 12 15 53 30 47 55 51 60 64
59 56 53 49 43 45 47 54 43 39 41 35 30 28 26 24 22 19 17 19 21 16 26 14 3 13 8 17 25 19 11 11 9 7 11 4 4 7 4 9 3 7 11 7 4 11 19 39 63 55 59 65 59 71
60 57 54 53 50 47 44 41 42 41 34 31 28 27 25 23 20 19 21 21 19 9 8 6 6 13 15 11 9 33 9 11 10 10 4 4 4 17 7 7 8 16 2 8 13 35 42 46 50 56 66 59 60 68
56 56 54 53 54 49 46 47 46 40 31 28 27 26 25 22 17 17 19 15 11 6 7 20 33 1 11 26 33 33 35 41 20 5 5 6 8 5 5 2 8 9 7 4 10 44 47 50 63 62 57 55 53 64
50 52 51 52 51 49 48 48 41 34 27 27 26 26 25 19 14 12 6 4 3 4 9 7 12 3 1 9 21 28 33 35 28 12 11 11 9 7 3 5 16 21 15 31 32 52 65 61 56 60 60 49 59 51
45 45 46 45 48 51 49 45 42 32 27 27 26 24 22 19 15 10 6 3 9 4 6 13 19 5 11 2 12 19 18 12 17 11 11 8 9 13 4 8 6 15 37 51 51 46 30 44 59 58 51 52 46 43
39 36 41 49 50 51 53 43 35 29 26 25 22 19 19 17 17 11 11 23 16 7 6 3 9 14 13 4 5 9 12 18 10 7 5 5 6 8 8 21 27 34 51 43 31 40 49 56 48 54 48 42 42 42
44 47 52 49 47 46 41 37 33 28 24 20 16 14 15 12 6 7 7 4 15 11 6 5 3 6 12 5 1 4 6 2 4 6 6 10 2 9 12 24 36 44 37 44 39 42 45 47 47 45 40 40 39 41
53 52 48 48 46 43 39 35 30 27 23 18 12 6 6 9 11 10 3 4 9 11 11 10 9 6 6 7 5 3 3 2 1 4 12 4 6 28 29 28 33 39 37 32 36 38 43 45 42 39 39 37 41 39
59 53 51 48 46 41 37 33 31 29 24 20 13 7 11 15 10 3 5 7 10 7 12 12 24 8 8 5 6 3 3 1 1 7 5 3 5 10 14 29 31 29 24 29 29 33 39 33 32 35 40 42 34 27
55 52 51 46 41 39 36 35 34 32 20 19 15 14 16 10 7 4 6 5 8 8 11 11 14 22 8 12 4 6 3 2 7 14 3 4 7 12 20 30 29 26 24 20 30 35 36 27 27 33 39 37 28 23
62 52 50 49 45 39 40 36 33 31 24 21 12 11 9 8 5 10 13 7 6 10 14 15 10 8 12 13 5 3 5 8 9 4 4 6 13 18 23 25 24 21 16 28 27 33 23 25 30 40 41 31 36 35
46 46 48 47 51 49 44 36 38 41 31 11 13 7 10 9 9 10 8 7 11 12 6 13 8 13 9 8 6 6 7 6 4 3 5 6 12 21 19 20 22 16 19 20 24 25 20 28 38 44 41 45 44 40
44 42 42 38 35 35 36 38 41 47 16 10 10 9 12 16 14 7 14 14 10 17 14 8 4 4 3 3 6 1 5 2 5 4 6 7 14 19 14 19 19 12 18 15 20 22 20 27 31 37 43 40 43 28
47 42 39 39 38 39 36 37 39 38 8 8 12 8 12 3 10 19 17 14 3 4 14 7 4 2 7 5 5 10 8 10 7 8 6 7 14 10 9 15 13 13 15 18 19 16 16 23 35 41 31 45 34 22
53 45 45 44 40 39 35 32 23 13 12 8 9 17 22 17 12 6 6 6 5 6 5 6 6 14 5 3 5 7 8 7 13 12 6 6 11 6 8 11 7 14 11 17 19 14 18 24 38 25 42 43 36 38
45 44 49 44 51 46 36 15 14 10 9 14 11 17 19 18 15 16 14 9 6 1 9 8 6 7 7 7 5 7 11 17 16 14 8 1 9 6 5 4 11 11 12 14 19 20 27 49 33 31 43 41 45 49
37 47 47 49 50 33 13 12 7 5 18 15 24 34 30 22 28 31 31 26 22 15 10 6 6 7 7 10 13 26 21 18 17 18 8 3 7 9 1 7 9 8 8 4 11 21 45 37 29 37 37 39 41 43
34 37 38 39 39 12 9 8 13 10 9 9 16 18 17 18 20 22 24 29 31 13 13 8 10 11 14 19 21 18 14 17 18 17 6 8 12 10 5 3 7 12 8 6 18 30 48 30 22 31 35 36 31 31
35 36 32 32 28 9 8 9 13 11 9 12 12 15 12 20 27 32 36 36 30 15 19 35 40 33 13 19 28 22 20 21 23 11 5 5 7 2 6 0 17 11 8 15 24 41 40 17 21 25 35 36 31 30
38 45 40 29 8 8 8 14 9 5 9 12 13 14 12 16 26 32 23 31 21 47 52 52 48 51 44 32 22 29 23 28 18 9 5 9 10 12 1 10 19 14 14 17 28 42 31 27 20 17 31 31 32 32
39 30 17 8 7 10 8 10 10 8 5 6 4 4 8 10 10 12 13 22 33 51 55 58 56 58 49 38 34 32 29 26 18 8 8 9 11 5 14 16 18 19 20 30 52 44 39 26 19 17 22 25 20 24
29 13 7 10 10 6 6 8 10 8 6 5 3 7 7 8 6 7 8 13 37 36 49 65 70 64 57 53 51 44 37 30 28 22 19 15 18 5 7 11 18 19 34 68 48 43 32 22 18 23 24 20 16 19
7 9 8 9 12 7 7 6 9 6 7 8 5 7 6 8 5 7 8 15 33 36 48 56 54 72 73 70 62 52 42 42 38 29 23 18 18 3 23 20 22 24 60 60 55 43 27 20 22 16 12 14 19 26
4 11 16 15 11 10 9 5 9 11 5 8 10 8 7 5 7 10 7 16 22 19 22 43 63 63 67 68 64 54 46 43 37 36 16 25 10 11 32 40 39 35 61 52 46 33 21 19 19 22 25 27 28 28
6 9 17 18 11 8 7 7 7 7 8 8 5 6 7 8 10 8 14 17 30 27 25 29 48 64 64 60 58 46 40 38 39 28 17 20 12 12 36 50 48 41 48 43 43 31 21 22 20 18 20 21 20 19
17 9 10 10 17 20 7 5 4 6 6 7 5 6 5 5 4 7 11 28 22 8 12 27 38 50 56 57 64 45 46 45 36 23 19 20 17 13 21 32 40 44 39 38 44 33 24 26 23 18 18 18 20 20
13 13 12 12 14 11 17 18 19 14 10 5 4 3 7 11 35 45 33 12 5 12 22 32 37 38 49 63 68 49 43 41 33 26 30 34 31 24 29 41 51 52 44 42 43 31 20 18 15 17 22 22 23 26
15 27 13 12 10 11 17 27 19 30 34 34 30 25 39 32 25 19 14 5 16 21 23 26 37 46 53 70 69 52 41 31 30 26 30 38 45 32 37 42 51 47 42 39 29 30 24 19 21 27 24 23 26 25
12 14 13 13 11 22 35 42 45 41 33 30 29 27 23 14 16 31 15 22 27 35 38 42 43 50 64 72 63 51 45 38 36 28 30 38 29 24 28 47 49 41 39 35 29 25 25 26 27 27 26 29 29 22
11 16 13 9 12 20 23 15 17 11 17 15 12 11 5 2 11 11 24 32 39 41 41 43 50 53 52 51 41 36 33 37 40 29 40 38 27 29 40 42 45 40 36 36 34 36 31 34 30 29 28 34 30 22
19 28 21 9 8 6 8 11 10 13 9 11 5 13 14 7 8 9 18 18 23 29 32 34 37 38 38 34 33 36 35 35 40 50 37 28 30 35 39 37 35 30 30 35 37 38 38 40 34 29 27 32 29 20
Wind_Direction_500mb
266 267 269 263 259 261 265 275 278 288 293 305 314 320 325 328 325 326 320 316 324 281 282 260 250 221 204 188 148 295 5 323 41 65 110 238 168 279 338 258 220 202 153 242 340 271 281 15 356 3 287 304 302 309
263 263 266 266 263 256 258 264 268 281 288 292 303 311 315 317 314 317 316 310 307 282 272 280 270 251 255 270 247 220 220 213 182 94 209 104 222 85 160 275 21 279 188 213 190 231 262 302 308 312 316 303 317 317
259 259 257 257 257 256 256 260 255 272 275 285 295 301 305 305 305 307 309 308 313 299 295 282 326 161 231 256 228 203 223 209 185 155 151 143 244 131 197 239 261 279 223 237 1 269 271 306 311 311 316 313 312 317
256 255 254 251 246 246 248 250 258 263 262 276 285 290 293 295 299 302 309 309 307 293 294 280 205 236 226 222 216 206 171 175 176 181 171 160 183 194 216 257 228 247 244 246 253 277 306 302 305 308 314 316 319 325
256 251 250 249 246 242 244 245 248 245 255 269 276 280 282 288 293 300 301 305 275 271 273 288 303 330 250 240 241 234 232 231 225 176 146 220 215 177 231 230 250 212 212 245 275 303 292 297 308 321 314 327 327 325
255 246 246 241 237 234 236 239 232 241 252 261 267 270 275 279 285 303 274 231 167 329 312 311 308 276 29 289 216 227 240 230 218 198 203 213 225 195 237 256 244 228 265 286 284 299 301 306 320 326 328 329 330 329
254 240 239 234 226 227 223 234 229 234 246 253 256 263 269 274 274 261 262 219 194 315 292 303 315 300 343 155 191 209 203 187 204 213 217 208 202 187 232 256 233 247 309 317 312 312 305 328 320 328 331 333 335 339
238 232 226 223 220 221 221 215 219 226 234 241 250 258 265 274 283 270 260 233 218 246 272 280 280 320 2 360 161 180 193 206 215 222 185 188 157 195 253 259 278 292 316 314 308 324 320 323 325 333 337 339 346 349
226 234 222 219 216 212 208 209 214 217 225 230 236 251 274 259 220 163 168 195 214 224 278 212 235 261 347 21 310 162 179 123 198 189 227 163 169 233 244 279 295 309 314 313 325 326 326 329 335 341 342 347 349 351
228 233 223 211 194 198 202 204 202 209 207 205 207 209 207 151 151 162 178 199 185 212 235 240 225 267 326 349 353 359 19 164 220 238 146 213 254 269 287 300 304 309 314 325 326 329 337 341 343 347 349 353 355 348
223 215 200 196 195 190 194 198 197 192 191 183 178 173 161 157 171 217 225 202 191 240 222 236 214 221 223 175 226 226 192 183 331 257 186 223 263 263 295 316 324 321 323 320 327 336 336 345 351 352 5 3 352 355
211 206 198 190 182 183 191 192 189 188 181 176 152 143 159 191 196 206 214 200 210 232 210 201 218 209 210 206 190 208 184 104 248 158 239 218 256 299 319 330 339 336 331 324 343 345 347 358 16 20 17 8 11 25
199 190 190 187 182 178 184 184 183 174 165 159 176 165 180 175 191 209 198 208 213 206 204 197 203 173 182 199 202 157 194 230 116 208 251 242 291 332 337 342 350 346 351 350 355 356 12 34 36 33 35 38 55 67
181 185 186 180 182 181 178 178 182 173 165 177 172 195 195 192 232 206 195 191 206 182 62 208 189 190 178 162 176 196 227 118 106 222 238 255 325 341 350 350 344 341 359 13 4 16 33 47 47 51 69 73 66 50
178 177 167 166 161 161 174 176 178 177 182 190 183 225 217 227 240 250 245 256 275 281 266 158 154 197 173 196 196 178 183 139 204 235 233 296 336 344 358 353 345 354 21 21 20 39 65 60 53 72 79 50 46 71
160 151 163 165 169 170 173 175 176 180 211 214 225 242 245 272 256 251 256 242 48 130 137 128 111 92 229 189 169 224 128 199 221 219 243 326 334 355 10 342 349 25 34 35 29 50 84 75 77 94 49 18 31 56
159 162 160 166 168 167 167 164 160 195 211 225 240 234 256 277 266 243 187 186 336 177 140 122 187 220 137 196 238 187 195 198 170 170 162 9 355 52 336 358 28 32 63 41 38 90 102 105 108 62 19 31 53 66
158 158 161 158 159 157 160 154 174 203 238 242 240 249 237 232 240 241 203 231 304 145 172 171 240 222 201 196 230 217 161 150 153 168 175 26 46 10 336 54 49 39 80 41 48 103 119 120 101 55 39 52 74 75
154 163 161 163 166 153 154 183 200 237 240 253 253 255 255 252 249 246 248 250 253 246 271 242 226 204 222 220 198 171 176 180 187 183 190 289 294 299 290 101 37 114 90 94 96 121 138 115 84 65 51 60 87 88
150 161 163 169 181 157 161 176 189 239 249 237 243 244 232 231 251 243 238 225 228 221 207 212 214 208 208 198 182 179 188 200 190 179 212 264 289 280 249 78 143 143 137 132 124 137 138 124 103 71 63 65 90 102
152 164 167 175 180 169 203 190 207 236 252 249 266 238 246 243 245 242 241 233 224 212 216 220 223 224 199 200 197 186 177 167 171 176 206 271 282 242 192 185 167 158 164 137 138 149 146 124 123 71 74 70 79 90
146 165 158 167 153 202 248 219 227 251 244 252 266 247 245 230 227 232 227 208 220 223 222 218 217 214 219 214 196 183 178 168 170 181 273 229 166 159 293 188 177 165 159 153 155 140 149 151 140 83 100 88 89 89
153 154 150 154 175 206 258 205 224 229 227 245 241 247 236 229 221 184 215 223 232 229 226 224 222 221 218 215 202 199 204 208 201 259 267 222 193 118 5 160 195 181 157 148 143 142 143 131 119 129 131 124 107 103
155 157 156 181 206 243 221 224 218 239 247 264 225 275 266 230 185 231 250 242 239 234 225 225 222 220 217 220 226 223 220 222 229 247 244 237 189 126 336 177 187 201 153 148 145 135 128 121 127 126 120 108 107 123
149 192 199 208 205 205 224 219 203 205 240 200 231 254 252 197 224 239 247 265 265 249 232 223 219 219 215 215 217 220 221 215 218 226 228 214 156 67 146 152 147 140 155 159 147 144 125 106 132 143 137 133 122 105
218 210 197 203 199 206 210 237 199 192 219 222 229 242 212 205 233 242 235 256 261 253 224 211 210 208 211 216 211 207 204 205 208 208 203 182 176 179 169 163 161 143 162 160 147 146 140 119 122 115 112 110 119 120
252 240 223 221 231 224 250 257 299 232 238 233 224 208 207 224 235 255 270 304 309 282 268 239 215 204 201 197 196 191 192 191 184 188 171 163 208 210 178 166 167 155 158 169 180 173 166 148 137 125 123 107 103 114
230 248 214 210 216 229 211 144 259 254 247 233 245 238 253 234 240 291 290 325 325 255 209 192 196 200 194 183 171 177 174 169 174 178 159 164 186 189 153 159 161 167 155 146 165 159 145 137 140 138 130 120 112 112
229 226 217 243 240 232 218 202 195 234 239 239 272 275 272 269 291 303 313 300 192 140 144 159 170 175 175 175 172 170 171 173 170 170 164 159 189 173 151 149 161 164 172 164 155 162 156 152 157 146 137 130 125 121
245 220 214 231 209 220 218 209 220 233 242 252 254 269 292 301 357 27 17 146 145 155 150 145 149 160 167 172 173 176 186 196 206 200 182 184 181 168 152 163 172 181 184 185 181 176 171 166 165 161 157 149 141 126
245 189 217 233 251 252 250 252 262 263 251 243 255 261 269 302 17 37 79 114 124 132 134 139 148 158 160 165 171 176 177 181 180 170 168 164 166 161 168 172 177 182 188 190 188 181 166 163 163 158 159 161 154 139
235 213 216 224 251 265 285 219 206 188 190 198 222 213 199 40 352 61 87 130 124 124 129 129 136 146 154 161 167 173 178 168 164 161 168 177 158 145 146 152 161 168 175 179 180 174 166 162 161 153 152 158 153 145
237 231 219 252 249 253 198 171 143 143 148 179 179 188 214 224 112 116 103 115 143 133 138 146 151 154 160 163 157 153 156 165 158 153 159 157 164 159 157 157 158 158 164 165 166 169 169 166 160 157 153 154 154 150
Wind_Speed_850mb
60 59 59 51 53 54 47 48 45 40 42 41 36 33 29 25 21 19 18 16 13 10 22 23 22 17 10 8 6 2 6 4 7 7 4 3 2 4 3 7 5 6 3 5 1 5 15 13 24 5 20 68 66 54
58 56 53 45 41 47 49 49 44 39 40 38 33 30 27 24 22 18 15 20 20 17 19 32 35 31 34 39 18 6 3 6 9 7 1 4 4 0 5 6 1 5 11 5 13 12 15 53 30 47 55 51 60 64
59 56 53 49 43 45 47 54 43 39 41 35 30 28 26 24 22 19 17 19 21 16 26 14 3 13 8 17 25 19 11 11 9 7 11 4 4 7 4 9 3 7 11 7 4 11 19 39 63 55 59 65 59 71
60 57 54 53 50 47 44 41 42 41 34 31 28 27 25 23 20 19 21 21 19 9 8 6 6 13 15 11 9 33 9 11 10 10 4 4 4 17 7 7 8 16 2 8 13 35 42 46 50 56 66 59 60 68
56 56 54 53 54 49 46 47 46 40 31 28 27 26 25 22 17 17 19 15 11 6 7 20 33 1 11 26 33 33 35 41 20 5 5 6 8 5 5 2 8 9 7 4 10 44 47 50 63 62 57 55 53 64
50 52 51 52 51 49 48 48 41 34 27 27 26 26 25 19 14 12 6 4 3 4 9 7 12 3 1 9 21 28 33 35 28 12 11 11 9 7 3 5 16 21 15 31 32 52 65 61 56 60 60 49 59 51
45 45 46 45 48 51 49 45 42 32 27 27 26 24 22 19 15 10 6 3 9 4 6 13 19 5 11 2 12 19 18 12 17 11 11 8 9 13 4 8 6 15 37 51 51 46 30 44 59 58 51 52 46 43
39 36 41 49 50 51 53 43 35 29 26 25 22 19 19 17 17 11 11 23 16 7 6 3 9 14 13 4 5 9 12 18 10 7 5 5 6 8 8 21 27 34 51 43 31 40 49 56 48 54 48 42 42 42
44 47 52 49 47 46 41 37 33 28 24 20 16 14 15 12 6 7 7 4 15 11 6 5 3 6 12 5 1 4 6 2 4 6 6 10 2 9 12 24 36 44 37 44 39 42 45 47 47 45 40 40 39 41
53 52 48 48 46 43 39 35 30 27 23 18 12 6 6 9 11 10 3 4 9 11 11 10 9 6 6 7 5 3 3 2 1 4 12 4 6 28 29 28 33 39 37 32 36 38 43 45 42 39 39 37 41 39
59 53 51 48 46 41 37 33 31 29 24 20 13 7 11 15 10 3 5 7 10 7 12 12 24 8 8 5 6 3 3 1 1 7 5 3 5 10 14 29 31 29 24 29 29 33 39 33 32 35 40 42 34 27
55 52 51 46 41 39 36 35 34 32 20 19 15 14 16 10 7 4 6 5 8 8 11 11 14 22 8 12 4 6 3 2 7 14 3 4 7 12 20 30 29 26 24 20 30 35 36 27 27 33 39 37 28 23
62 52 50 49 45 39 40 36 33 31 24 21 12 11 9 8 5 10 13 7 6 10 14 15 10 8 12 13 5 3 5 8 9 4 4 6 13 18 23 25 24 21 16 28 27 33 23 25 30 40 41 31 36 35
46 46 48 47 51 49 44 36 38 41 31 11 13 7 10 9 9 10 8 7 11 12 6 13 8 13 9 8 6 6 7 6 4 3 5 6 12 21 19 20 22 16 19 20 24 25 20 28 38 44 41 45 44 40
44 42 42 38 35 35 36 38 41 47 16 10 10 9 12 16 14 7 14 14 10 17 14 8 4 4 3 3 6 1 5 2 5 4 6 7 14 19 14 19 19 12 18 15 20 22 20 27 31 37 43 40 43 28
47 42 39 39 38 39 36 37 39 38 8 8 12 8 12 3 10 19 17 14 3 4 14 7 4 2 7 5 5 10 8 10 7 8 6 7 14 10 9 15 13 13 15 18 19 16 16 23 35 41 31 45 34 22
53 45 45 44 40 39 35 32 23 13 12 8 9 17 22 17 12 6 6 6 5 6 5 6 6 14 5 3 5 7 8 7 13 12 6 6 11 6 8 11 7 14 11 17 19 14 18 24 38 25 42 43 36 38
45 44 49 44 51 46 36 15 14 10 9 14 11 17 19 18 15 16 14 9 6 1 9 8 6 7 7 7 5 7 11 17 16 14 8 1 9 6 5 4 11 11 12 14 19 20 27 49 33 31 43 41 45 49
37 47 47 49 50 33 13 12 7 5 18 15 24 34 30 22 28 31 31 26 22 15 10 6 6 7 7 10 13 26 21 18 17 18 8 3 7 9 1 7 9 8 8 4 11 21 45 37 29 37 37 39 41 43
34 37 38 39 39 12 9 8 13 10 9 9 16 18 17 18 20 22 24 29 31 13 13 8 10 11 14 19 21 18 14 17 18 17 6 8 12 10 5 3 7 12 8 6 18 30 48 30 22 31 35 36 31 31
35 36 32 32 28 9 8 9 13 11 9 12 12 15 12 20 27 32 36 36 30 15 19 35 40 33 13 19 28 22 20 21 23 11 5 5 7 2 6 0 17 11 8 15 24 41 40 17 21 25 35 36 31 30
38 45 40 29 8 8 8 14 9 5 9 12 13 14 12 16 26 32 23 31 21 47 52 52 48 51 44 32 22 29 23 28 18 9 5 9 10 12 1 10 19 14 14 17 28 42 31 27 20 17 31 31 32 32
39 30 17 8 7 10 8 10 10 8 5 6 4 4 8 10 10 12 13 22 33 51 55 58 56 58 49 38 34 32 29 26 18 8 8 9 11 5 14 16 18 19 20 30 52 44 39 26 19 17 22 25 20 24
29 13 7 10 10 6 6 8 10 8 6 5 3 7 7 8 6 7 8 13 37 36 49 65 70 64 57 53 51 44 37 30 28 22 19 15 18 5 7 11 18 19 34 68 48 43 32 22 18 23 24 20 16 19
7 9 8 9 12 7 7 6 9 6 7 8 5 7 6 8 5 7 8 15 33 36 48 56 54 72 73 70 62 52 42 42 38 29 23 18 18 3 23 20 22 24 60 60 55 43 27 20 22 16 12 14 19 26
4 11 16 15 11 10 9 5 9 11 5 8 10 8 7 5 7 10 7 16 22 19 22 43 63 63 67 68 64 54 46 43 37 36 16 25 10 11 32 40 39 35 61 52 46 33 21 19 19 22 25 27 28 28
6 9 17 18 11 8 7 7 7 7 8 8 5 6 7 8 10 8 14 17 30 27 25 29 48 64 64 60 58 46 40 38 39 28 17 20 12 12 36 50 48 41 48 43 43 31 21 22 20 18 20 21 20 19
17 9 10 10 17 20 7 5 4 6 6 7 5 6 5 5 4 7 11 28 22 8 12 27 38 50 56 57 64 45 46 45 36 23 19 20 17 13 21 32 40 44 39 38 44 33 24 26 23 18 18 18 20 20
13 13 12 12 14 11 17 18 19 14 10 5 4 3 7 11 35 45 33 12 5 12 22 32 37 38 49 63 68 49 43 41 33 26 30 34 31 24 29 41 51 52 44 42 43 31 20 18 15 17 22 22 23 26
15 27 13 12 10 11 17 27 19 30 34 34 30 25 39 32 25 19 14 5 16 21 23 26 37 46 53 70 69 52 41 31 30 26 30 38 45 32 37 42 51 47 42 39 29 30 24 19 21 27 24 23 26 25
12 14 13 13 11 22 35 42 45 41 33 30 29 27 23 14 16 31 15 22 27 35 38 42 43 50 64 72 63 51 45 38 36 28 30 38 29 24 28 47 49 41 39 35 29 25 25 26 27 27 26 29 29 22
11 16 13 9 12 20 23 15 17 11 17 15 12 11 5 2 11 11 24 32 39 41 41 43 50 53 52 51 41 36 33 37 40 29 40 38 27 29 40 42 45 40 36 36 34 36 31 34 30 29 28 34 30 22
19 28 21 9 8 6 8 11 10 13 9 11 5 13 14 7 8 9 18 18 23 29 32 34 37 38 38 34 33 36 35 35 40 50 37 28 30 35 39 37 35 30 30 35 37 38 38 40 34 29 27 32 29 20
Wind_Direction_850mb
266 267 269 263 259 261 265 275 278 288 293 305 314 320 325 328 325 326 320 316 324 281 282 260 250 221 204 188 148 295 5 323 41 65 110 238 168 279 338 258 220 202 153 242 340 271 281 15 356 3 287 304 302 309
263 263 266 266 263 256 258 264 268 281 288 292 303 311 315 317 314 317 316 310 307 282 272 280 270 251 255 270 247 220 220 213 182 94 209 104 222 85 160 275 21 279 188 213 190 231 262 302 308 312 316 303 317 317
259 259 257 257 257 256 256 260 255 272 275 285 295 301 305 305 305 307 309 308 313 299 295 282 326 161 231 256 228 203 223 209 185 155 151 143 244 131 197 239 261 279 223 237 1 269 271 306 311 311 316 313 312 317
256 255 254 251 246 246 248 250 258 263 262 276 285 290 293 295 299 302 309 309 307 293 294 280 205 236 226 222 216 206 171 175 176 181 171 160 183 194 216 257 228 247 244 246 253 277 306 302 305 308 314 316 319 325
256 251 250 249 246 242 244 245 248 245 255 269 276 280 282 288 293 300 301 305 275 271 273 288 303 330 250 240 241 234 232 231 225 176 146 220 215 177 231 230 250 212 212 245 275 303 292 297 308 321 314 327 327 325
255 246 246 241 237 234 236 239 232 241 252 261 267 270 275 279 285 303 274 231 167 329 312 311 308 276 29 289 216 227 240 230 218 198 203 213 225 195 237 256 244 228 265 286 284 299 301 306 320 326 328 329 330 329
254 240 239 234 226 227 223 234 229 234 246 253 256 263 269 274 274 261 262 219 194 315 292 303 315 300 343 155 191 209 203 187 204 213 217 208 202 187 232 256 233 247 309 317 312 312 305 328 320 328 331 333 335 339
238 232 226 223 220 221 221 215 219 226 234 241 250 258 265 274 283 270 260 233 218 246 272 280 280 320 2 360 161 180 193 206 215 222 185 188 157 195 253 259 278 292 316 314 308 324 320 323 325 333 337 339 346 349
226 234 222 219 216 212 208 209 214 217 225 230 236 251 274 259 220 163 168 195 214 224 278 212 235 261 347 21 310 162 179 123 198 189 227 163 169 233 244 279 295 309 314 313 325 326 326 329 335 341 342 347 349 351
228 233 223 211 194 198 202 204 202 209 207 205 207 209 207 151 151 162 178 199 185 212 235 240 225 267 326 349 353 359 19 164 220 238 146 213 254 269 287 300 304 309 314 325 326 329 337 341 343 347 349 353 355 348
223 215 200 196 195 190 194 198 197 192 191 183 178 173 161 157 171 217 225 202 191 240 222 236 214 221 223 175 226 226 192 183 331 257 186 223 263 263 295 316 324 321 323 320 327 336 336 345 351 352 5 3 352 355
211 206 198 190 182 183 191 192 189 188 181 176 152 143 159 191 196 206 214 200 210 232 210 201 218 209 210 206 190 208 184 104 248 158 239 218 256 299 319 330 339 336 331 324 343 345 347 358 16 20 17 8 11 25
199 190 190 187 182 178 184 184 183 174 165 159 176 165 180 175 191 209 198 208 213 206 204 197 203 173 182 199 202 157 194 230 116 208 251 242 291 332 337 342 350 346 351 350 355 356 12 34 36 33 35 38 55 67
181 185 186 180 182 181 178 178 182 173 165 177 172 195 195 192 232 206 195 191 206 182 62 208 189 190 178 162 176 196 227 118 106 222 238 255 325 341 350 350 344 341 359 13 4 16 33 47 47 51 69 73 66 50
178 177 167 166 161 161 174 176 178 177 182 190 183 225 217 227 240 250 245 256 275 281 266 158 154 197 173 196 196 178 183 139 204 235 233 296 336 344 358 353 345 354 21 21 20 39 65 60 53 72 79 50 46 71
160 151 163 165 169 170 173 175 176 180 211 214 225 242 245 272 256 251 256 242 48 130 137 128 111 92 229 189 169 224 128 199 221 219 243 326 334 355 10 342 349 25 34 35 29 50 84 75 77 94 49 18 31 56
159 162 160 166 168 167 167 164 160 195 211 225 240 234 256 277 266 243 187 186 336 177 140 122 187 220 137 196 238 187 195 198 170 170 162 9 355 52 336 358 28 32 63 41 38 90 102 105 108 62 19 31 53 66
158 158 161 158 159 157 160 154 174 203 238 242 240 249 237 232 240 241 203 231 304 145 172 171 240 222 201 196 230 217 161 150 153 168 175 26 46 10 336 54 49 39 80 41 48 103 119 120 101 55 39 52 74 75
154 163 161 163 166 153 154 183 200 237 240 253 253 255 255 252 249 246 248 250 253 246 271 242 226 204 222 220 198 171 176 180 187 183 190 289 294 299 290 101 37 114 90 94 96 121 138 115 84 65 51 60 87 88
150 161 163 169 181 157 161 176 189 239 249 237 243 244 232 231 251 243 238 225 228 221 207 212 214 208 208 198 182 179 188 200 190 179 212 264 289 280 249 78 143 143 137 132 124 137 138 124 103 71 63 65 90 102
152 164 167 175 180 169 203 190 207 236 252 249 266 238 246 243 245 242 241 233 224 212 216 220 223 224 199 200 197 186 177 167 171 176 206 271 282 242 192 185 167 158 164 137 138 149 146 124 123 71 74 70 79 90
146 165 158 167 153 202 248 219 227 251 244 252 266 247 245 230 227 232 227 208 220 223 222 218 217 214 219 214 196 183 178 168 170 181 273 229 166 159 293 188 177 165 159 153 155 140 149 151 140 83 100 88 89 89
153 154 150 154 175 206 258 205 224 229 227 245 241 247 236 229 221 184 215 223 232 229 226 224 222 221 218 215 202 199 204 208 201 259 267 222 193 118 5 160 195 181 157 148 143 142 143 131 119 129 131 124 107 103
155 157 156 181 206 243 221 224 218 239 247 264 225 275 266 230 185 231 250 242 239 234 225 225 222 220 217 220 226 223 220 222 229 247 244 237 189 126 336 177 187 201 153 148 145 135 128 121 127 126 120 108 107 123
149 192 199 208 205 205 224 219 203 205 240 200 231 254 252 197 224 239 247 265 265 249 232 223 219 219 215 215 217 220 221 215 218 226 228 214 156 67 146 152 147 140 155 159 147 144 125 106 132 143 137 133 122 105
218 210 197 203 199 206 210 237 199 192 219 222 229 242 212 205 233 242 235 256 261 253 224 211 210 208 211 216 211 207 204 205 208 208 203 182 176 179 169 163 161 143 162 160 147 146 140 119 122 115 112 110 119 120
252 240 223 221 231 224 250 257 299 232 238 233 224 208 207 224 235 255 270 304 309 282 268 239 215 204 201 197 196 191 192 191 184 188 171 163 208 210 178 166 167 155 158 169 180 173 166 148 137 125 123 107 103 114
230 248 214 210 216 229 211 144 259 254 247 233 245 238 253 234 240 291 290 325 325 255 209 192 196 200 194 183 171 177 174 169 174 178 159 164 186 189 153 159 161 167 155 146 165 159 145 137 140 138 130 120 112 112
229 226 217 243 240 232 218 202 195 234 239 239 272 275 272 269 291 303 313 300 192 140 144 159 170 175 175 175 172 170 171 173 170 170 164 159 189 173 151 149 161 164 172 164 155 162 156 152 157 146 137 130 125 121
245 220 214 231 209 220 218 209 220 233 242 252 254 269 292 301 357 27 17 146 145 155 150 145 149 160 167 172 173 176 186 196 206 200 182 184 181 168 152 163 172 181 184 185 181 176 171 166 165 161 157 149 141 126
245 189 217 233 251 252 250 252 262 263 251 243 255 261 269 302 17 37 79 114 124 132 134 139 148 158 160 165 171 176 177 181 180 170 168 164 166 161 168 172 177 182 188 190 188 181 166 163 163 158 159 161 154 139
235 213 216 224 251 265 285 219 206 188 190 198 222 213 199 40 352 61 87 130 124 124 129 129 136 146 154 161 167 173 178 168 164 161 168 177 158 145 146 152 161 168 175 179 180 174 166 162 161 153 152 158 153 145
237 231 219 252 249 253 198 171 143 143 148 179 179 188 214 224 112 116 103 115 143 133 138 146 151 154 160 163 157 153 156 165 158 153 159 157 164 159 157 157 158 158 164 165 166 169 169 166 160 157 153 154 154 150